Location: *
(39.6167°S, 171.5333°W)
Time: 19:14:39
(UTC+00:00)

Cosmos 2098 Rocket - Pass Details

Date: 13 May 2021
Orbit: 365 x 1178 km, 82.9° (Epoch: 20 June)

Event Time Altitude Azimuth Distance (km) Brightness Sun altitude
Exits shadow 16:19:13 27° 174° (S) 1,125 4.3 -23.7°
Maximum altitude 16:21:23 68° 97° (E) 670 3.3 -23.3°
Drops below altitude 10° 16:26:17 10° 14° (NNE) 2,236 6.1 -22.4°
Sets 16:28:55 0° 11° (N) 3,297 7.0 -21.8°
